User: anonymous   Login
Location: Waldport
(44.4270°N, 124.0680°W)
Time: 08:21:51
(UTC-07:00)
Language:

Cosmos 1023 Rocket - Orbit

View from above orbital plane
View from above orbital plane
View from above satellite
View from above satellite

Ground track
Ground track

The orbit data is extracted from the following two-line orbital elements,

1 10962U 78063B   16177.45787715  .00000122  00000-0  46003-4 0  9990
2 10962  74.0785 157.4335 0024693 154.7677 205.4691 14.41033340994484
Epoch (UTC): 25 June 2016 10:59:20
Eccentricity: 0.0024693
inclination: 74.0785°
perigee height: 737 km
apogee height: 773 km
right ascension of ascending node: 157.4335°
argument of perigee: 154.7677°
revolutions per day: 14.41033340
mean anomaly at epoch: 205.4691°
orbit number at epoch: 99448

The dashed part of the orbit path shows where the satellite is in the earth's shadow,  

DLR